Location: Unspecified
(48.2082°N, 0.0000°E)
Time: 16:26:31
(UTC+00:00)

A-11 Canister half - Pass Details

Date: 21 June 2019
Orbit: 1515 x 1685 km, 47.2° (Epoch: 15 July)

Event Time Altitude Azimuth Distance (km) Brightness Sun altitude
Rises 13:54:32 0° 270° (W) 4,853 12.0 56.7°
Reaches altitude 10° 13:57:41 10° 270° (W) 3,844 11.7 56.2°
Maximum altitude 14:07:29 85° 184° (S) 1,584 10.3 54.9°
Drops below altitude 10° 14:16:55 10° 97° (E) 3,713 10.8 53.6°
Sets 14:19:55 0° 97° (E) 4,680 11.3 53.2°
